TimeEDT,TemperatureF,Dew PointF,Humidity,Sea Level PressureIn,VisibilityMPH,Wind Direction,Wind SpeedMPH,Gust SpeedMPH,PrecipitationIn,Events,Conditions,WindDirDegrees,DateUTC
12:53 AM,43.0,41.0,93,30.36,10.0,Calm,Calm,-,N/A,,Mostly Cloudy,0,2012-10-09 04:53:00
1:53 AM,45.0,43.0,93,30.37,10.0,Calm,Calm,-,N/A,,Overcast,0,2012-10-09 05:53:00
2:53 AM,46.0,43.0,89,30.35,10.0,Calm,Calm,-,N/A,,Overcast,0,2012-10-09 06:53:00
3:53 AM,46.0,43.0,89,30.35,10.0,Calm,Calm,-,N/A,,Overcast,0,2012-10-09 07:53:00
4:53 AM,46.0,42.1,86,30.36,10.0,Variable,3.5,-,N/A,,Overcast,0,2012-10-09 08:53:00
5:53 AM,46.0,41.0,83,30.36,10.0,Variable,3.5,-,N/A,,Overcast,0,2012-10-09 09:53:00
6:53 AM,46.0,39.9,79,30.35,10.0,Variable,3.5,-,N/A,,Overcast,0,2012-10-09 10:53:00
7:53 AM,46.9,39.9,77,30.36,10.0,Calm,Calm,-,N/A,,Overcast,0,2012-10-09 11:53:00
8:53 AM,50.0,41.0,71,30.36,10.0,NE,4.6,-,N/A,,Clear,50,2012-10-09 12:53:00
9:53 AM,54.0,41.0,62,30.34,10.0,ENE,9.2,-,N/A,,Partly Cloudy,60,2012-10-09 13:53:00
10:53 AM,55.0,42.1,62,30.35,10.0,East,6.9,-,N/A,,Mostly Cloudy,80,2012-10-09 14:53:00
11:53 AM,54.0,41.0,62,30.33,10.0,East,8.1,-,N/A,,Overcast,80,2012-10-09 15:53:00
12:53 PM,54.0,42.1,64,30.32,10.0,East,9.2,-,N/A,,Overcast,80,2012-10-09 16:53:00
1:53 PM,54.0,41.0,62,30.29,10.0,East,8.1,-,N/A,,Overcast,90,2012-10-09 17:53:00
2:53 PM,55.0,41.0,59,30.28,10.0,East,6.9,-,N/A,,Overcast,80,2012-10-09 18:53:00
3:53 PM,55.0,41.0,59,30.26,10.0,ENE,8.1,-,N/A,,Scattered Clouds,60,2012-10-09 19:53:00
4:53 PM,54.0,39.0,57,30.25,10.0,Variable,4.6,-,N/A,,Scattered Clouds,0,2012-10-09 20:53:00
5:53 PM,50.0,39.9,68,30.24,10.0,Calm,Calm,-,N/A,,Mostly Cloudy,0,2012-10-09 21:53:00
6:53 PM,44.1,39.9,85,30.24,10.0,Calm,Calm,-,N/A,,Clear,0,2012-10-09 22:53:00
7:53 PM,42.1,37.9,85,30.23,10.0,Calm,Calm,-,N/A,,Clear,0,2012-10-09 23:53:00
8:53 PM,39.9,37.0,89,30.23,10.0,Calm,Calm,-,N/A,,Clear,0,2012-10-10 00:53:00
9:53 PM,39.0,36.0,89,30.22,10.0,Calm,Calm,-,N/A,,Clear,0,2012-10-10 01:53:00
10:53 PM,37.9,35.1,89,30.21,10.0,Calm,Calm,-,N/A,,Clear,0,2012-10-10 02:53:00
11:53 PM,39.0,36.0,89,30.19,10.0,Calm,Calm,-,N/A,,Overcast,0,2012-10-10 03:53:00